| time (UTC) | temp C | wind direction | speed KPH | gust KPH | rain 1hr cm | rain 24hr cm | rain mn cm | humidity % | barometer mb |
| 20260505171516 | 25 | 258 | 9.7 | 16.1 | 0.00 | 0.10 | 0.10 | 43 | 1009.8 |
| 20260505171013 | 26 | 282 | 9.7 | 12.9 | 0.00 | 0.10 | 0.10 | 42 | 1010.1 |
| 20260505170510 | 25 | 276 | 16.1 | 22.5 | 0.00 | 0.10 | 0.10 | 42 | 1010.1 |
| 20260505170006 | 25 | 284 | 17.7 | 22.5 | 0.00 | 0.10 | 0.10 | 43 | 1010.1 |
| 20260505165501 | 26 | 289 | 9.7 | 12.9 | 0.00 | 0.10 | 0.10 | 43 | 1010.2 |
| 20260505164957 | 25 | 288 | 8.0 | 17.7 | 0.00 | 0.10 | 0.10 | 44 | 1010.4 |
| 20260505164454 | 25 | 288 | 9.7 | 12.9 | 0.00 | 0.10 | 0.10 | 46 | 1010.3 |
| 20260505163952 | 25 | 263 | 9.7 | 12.9 | 0.00 | 0.10 | 0.10 | 45 | 1010.4 |
| 20260505163450 | 25 | 293 | 12.9 | 17.7 | 0.00 | 0.10 | 0.10 | 44 | 1010.6 |
| 20260505162949 | 25 | 283 | 11.3 | 12.9 | 0.00 | 0.10 | 0.10 | 45 | 1010.6 |
| 20260505162445 | 25 | 267 | 8.0 | 11.3 | 0.00 | 0.10 | 0.10 | 48 | 1010.8 |
| 20260505161941 | 25 | 284 | 9.7 | 17.7 | 0.00 | 0.10 | 0.10 | 48 | 1010.9 |
| 20260505161438 | 23 | 266 | 12.9 | 17.7 | 0.00 | 0.10 | 0.10 | 49 | 1010.7 |
| 20260505160936 | 23 | 264 | 11.3 | 19.3 | 0.00 | 0.10 | 0.10 | 48 | 1010.8 |
| 20260505160434 | 23 | 294 | 14.5 | 17.7 | 0.00 | 0.10 | 0.10 | 48 | 1010.7 |
| 20260505152910 | 22 | 266 | 9.7 | 12.9 | 0.00 | 0.10 | 0.10 | 51 | 1011.2 |
| 20260505152407 | 22 | 290 | 11.3 | 19.3 | 0.00 | 0.10 | 0.10 | 53 | 1011.3 |
| 20260505151901 | 22 | 300 | 14.5 | 17.7 | 0.00 | 0.10 | 0.10 | 52 | 1011.1 |
| 20260505151358 | 22 | 289 | 14.5 | 16.1 | 0.00 | 0.10 | 0.10 | 54 | 1011.2 |
| 20260505150855 | 22 | 290 | 11.3 | 16.1 | 0.00 | 0.10 | 0.10 | 53 | 1011.4 |
| 20260505150352 | 22 | 300 | 9.7 | 12.9 | 0.00 | 0.10 | 0.10 | 56 | 1011.5 |
| 20260505140316 | 20 | 269 | 3.2 | 8.0 | 0.00 | 0.10 | 0.10 | 60 | 1011.7 |
| 20260505130240 | 18 | 274 | 6.4 | 8.0 | 0.00 | 0.10 | 0.10 | 65 | 1011.8 |
| 20260505124731 | 17 | 268 | 4.8 | 6.4 | 0.00 | 0.10 | 0.10 | 66 | 1011.9 |
| 20260505124227 | 17 | 269 | 4.8 | 6.4 | 0.00 | 0.10 | 0.10 | 67 | 1011.9 |
| 20260505123722 | 17 | 270 | 4.8 | 6.4 | 0.00 | 0.10 | 0.10 | 67 | 1011.8 |
| 20260505123220 | 17 | 263 | 8.0 | 11.3 | 0.00 | 0.10 | 0.10 | 68 | 1011.8 |
| 20260505122716 | 17 | 267 | 8.0 | 8.0 | 0.00 | 0.10 | 0.10 | 68 | 1011.6 |
| 20260505122214 | 17 | 262 | 6.4 | 8.0 | 0.00 | 0.10 | 0.10 | 68 | 1011.7 |
| 20260505121710 | 16 | 257 | 6.4 | 6.4 | 0.00 | 0.10 | 0.10 | 70 | 1011.7 |
| 20260505121207 | 16 | 281 | 3.2 | 6.4 | 0.00 | 0.10 | 0.10 | 74 | 1011.7 |
| 20260505120703 | 16 | 281 | 0.0 | 1.6 | 0.00 | 0.10 | 0.10 | 75 | 1011.5 |
| 20260505120159 | 15 | 281 | 1.6 | 1.6 | 0.00 | 0.10 | 0.10 | 76 | 1011.6 |
| 20260505115652 | 15 | 278 | 1.6 | 1.6 | 0.00 | 0.10 | 0.10 | 78 | 1011.6 |
| 20260505115151 | 15 | 281 | 0.0 | 1.6 | 0.00 | 0.10 | 0.10 | 79 | 1011.6 |
| 20260505114647 | 15 | 281 | 1.6 | 4.8 | 0.00 | 0.10 | 0.10 | 80 | 1011.6 |
| 20260505114143 | 15 | 282 | 4.8 | 4.8 | 0.00 | 0.10 | 0.10 | 78 | 1011.6 |
| 20260505113635 | 16 | 249 | 1.6 | 4.8 | 0.00 | 0.10 | 0.10 | 77 | 1011.7 |
| 20260505113132 | 16 | 206 | 0.0 | 0.0 | 0.00 | 0.10 | 0.10 | 82 | 1011.5 |
| 20260505112628 | 15 | 206 | 0.0 | 0.0 | 0.00 | 0.10 | 0.10 | 84 | 1011.5 |
| 20260505112126 | 15 | 206 | 0.0 | 0.0 | 0.00 | 0.10 | 0.10 | 81 | 1011.4 |
| 20260505111620 | 14 | 206 | 0.0 | 0.0 | 0.00 | 0.10 | 0.10 | 83 | 1011.6 |
| 20260505111116 | 13 | 206 | 0.0 | 0.0 | 0.00 | 0.10 | 0.10 | 87 | 1011.2 |
| 20260505110612 | 13 | 206 | 1.6 | 1.6 | 0.00 | 0.10 | 0.10 | 86 | 1011.2 |
| 20260505110109 | 13 | 206 | 0.0 | 0.0 | 0.00 | 0.10 | 0.10 | 84 | 1011.3 |
| 20260505102045 | 11 | 210 | 0.0 | 1.6 | 0.00 | 0.10 | 0.10 | 91 | 1011.1 |
| 20260505101543 | 11 | 210 | 0.0 | 1.6 | 0.00 | 0.10 | 0.10 | 88 | 1011.2 |
| 20260505101039 | 12 | 209 | 0.0 | 1.6 | 0.00 | 0.10 | 0.10 | 87 | 1011.0 |
| 20260505100536 | 12 | 210 | 1.6 | 1.6 | 0.00 | 0.10 | 0.10 | 86 | 1011.0 |
| 20260505100033 | 12 | 210 | 0.0 | 0.0 | 0.00 | 0.10 | 0.10 | 87 | 1010.9 |
| 20260505095529 | 12 | 210 | 0.0 | 1.6 | 0.00 | 0.10 | 0.10 | 86 | 1010.8 |
| 20260505095026 | 12 | 210 | 0.0 | 0.0 | 0.00 | 0.10 | 0.10 | 84 | 1010.8 |
| 20260505094522 | 12 | 210 | 0.0 | 1.6 | 0.00 | 0.10 | 0.10 | 84 | 1010.9 |
| 20260505094019 | 12 | 210 | 0.0 | 1.6 | 0.00 | 0.10 | 0.10 | 85 | 1010.8 |
| 20260505093515 | 12 | 210 | 0.0 | 1.6 | 0.00 | 0.10 | 0.10 | 85 | 1010.8 |
| 20260505093013 | 12 | 209 | 1.6 | 4.8 | 0.00 | 0.10 | 0.10 | 85 | 1010.7 |
| 20260505092510 | 12 | 210 | 0.0 | 4.8 | 0.00 | 0.10 | 0.10 | 84 | 1010.7 |
| 20260505092008 | 12 | 192 | 1.6 | 4.8 | 0.00 | 0.10 | 0.10 | 84 | 1010.6 |
| 20260505091505 | 12 | 193 | 3.2 | 4.8 | 0.00 | 0.10 | 0.10 | 84 | 1010.7 |
| 20260505091003 | 12 | 210 | 0.0 | 4.8 | 0.00 | 0.10 | 0.10 | 85 | 1010.7 |
| 20260505090501 | 12 | 207 | 1.6 | 6.4 | 0.00 | 0.10 | 0.10 | 82 | 1010.7 |
| 20260505085958 | 11 | 191 | 3.2 | 4.8 | 0.00 | 0.10 | 0.10 | 90 | 1010.6 |
| 20260505085456 | 11 | 206 | 1.6 | 4.8 | 0.00 | 0.10 | 0.10 | 92 | 1010.8 |
| 20260505084954 | 11 | 206 | 0.0 | 1.6 | 0.00 | 0.10 | 0.10 | 92 | 1010.9 |
| 20260505084452 | 11 | 206 | 0.0 | 0.0 | 0.00 | 0.10 | 0.10 | 93 | 1011.2 |
| 20260505083949 | 12 | 206 | 0.0 | 0.0 | 0.00 | 0.10 | 0.10 | 91 | 1011.0 |
| 20260505083447 | 12 | 206 | 0.0 | 4.8 | 0.30 | 0.10 | 0.10 | 91 | 1010.9 |
| 20260505082943 | 12 | 205 | 0.0 | 4.8 | 0.13 | 0.08 | 0.08 | 87 | 1010.8 |
| 20260505082439 | 12 | 210 | 0.0 | 4.8 | 0.00 | 0.05 | 0.05 | 91 | 1011.3 |
| 20260505081936 | 12 | 263 | 0.0 | 1.6 | 0.00 | 0.05 | 0.05 | 88 | 1011.0 |
| 20260505081433 | 13 | 263 | 0.0 | 1.6 | 0.18 | 0.05 | 0.05 | 86 | 1010.9 |
| 20260505080929 | 13 | 273 | 1.6 | 4.8 | 0.30 | 0.05 | 0.05 | 83 | 1011.0 |
| 20260505080425 | 14 | 281 | 1.6 | 4.8 | 0.13 | 0.03 | 0.03 | 78 | 1011.0 |
| 20260505075921 | 15 | 283 | 6.4 | 8.0 | 0.00 | 0.00 | 0.00 | 68 | 1011.0 |
| 20260505075418 | 15 | 272 | 4.8 | 6.4 | 0.00 | 0.00 | 0.00 | 68 | 1010.7 |
| 20260505074915 | 15 | 282 | 8.0 | 8.0 | 0.00 | 0.00 | 0.00 | 68 | 1010.9 |
| 20260505074412 | 15 | 290 | 1.6 | 4.8 | 0.00 | 0.00 | 0.00 | 67 | 1010.6 |
| 20260505073909 | 15 | 289 | 4.8 | 8.0 | 0.00 | 0.00 | 0.00 | 67 | 1010.5 |
| 20260505073407 | 15 | 285 | 4.8 | 8.0 | 0.00 | 0.00 | 0.00 | 66 | 1010.2 |
| 20260505072904 | 15 | 283 | 4.8 | 6.4 | 0.00 | 0.00 | 0.00 | 65 | 1010.2 |
| 20260505072400 | 15 | 266 | 6.4 | 8.0 | 0.00 | 0.00 | 0.00 | 64 | 1010.5 |
| 20260505071856 | 15 | 272 | 4.8 | 6.4 | 0.00 | 0.00 | 0.00 | 64 | 1010.4 |
| 20260505071353 | 15 | 276 | 3.2 | 6.4 | 0.00 | 0.00 | 0.00 | 64 | 1010.6 |
| 20260505070851 | 15 | 264 | 6.4 | 8.0 | 0.00 | 0.00 | 0.00 | 64 | 1010.5 |
| 20260505070347 | 15 | 275 | 3.2 | 6.4 | 0.00 | 0.00 | 0.00 | 63 | 1010.5 |
| 20260505065842 | 15 | 272 | 4.8 | 6.4 | 0.00 | 0.00 | 0.00 | 63 | 1010.4 |
| 20260505065340 | 15 | 270 | 3.2 | 4.8 | 0.00 | 0.00 | 0.00 | 63 | 1010.6 |
| 20260505064836 | 15 | 269 | 4.8 | 6.4 | 0.00 | 0.00 | 0.00 | 62 | 1010.4 |
| 20260505064334 | 15 | 274 | 3.2 | 6.4 | 0.00 | 0.00 | 0.00 | 63 | 1010.6 |
| 20260505063832 | 15 | 274 | 4.8 | 6.4 | 0.00 | 0.00 | 0.00 | 64 | 1010.6 |
| 20260505063327 | 14 | 277 | 0.0 | 0.0 | 0.00 | 0.00 | 0.00 | 67 | 1010.6 |
| 20260505062824 | 15 | 277 | 0.0 | 0.0 | 0.00 | 0.00 | 0.00 | 66 | 1010.6 |
| 20260505062322 | 14 | 276 | 4.8 | 6.4 | 0.00 | 0.00 | 0.00 | 64 | 1010.6 |
| 20260505061818 | 14 | 276 | 0.0 | 0.0 | 0.00 | 0.00 | 0.00 | 67 | 1010.6 |
| 20260505061316 | 14 | 276 | 1.6 | 1.6 | 0.00 | 0.00 | 0.00 | 66 | 1010.6 |
| 20260505060814 | 14 | 276 | 1.6 | 4.8 | 0.00 | 0.00 | 0.00 | 64 | 1010.7 |
| 20260505060310 | 14 | 276 | 3.2 | 4.8 | 0.00 | 0.00 | 0.00 | 65 | 1010.7 |
| 20260505055806 | 13 | 276 | 0.0 | 1.6 | 0.00 | 0.00 | 0.00 | 66 | 1010.7 |
| 20260505055303 | 13 | 276 | 1.6 | 4.8 | 0.00 | 0.00 | 0.00 | 67 | 1010.6 |
| 20260505054800 | 13 | 276 | 0.0 | 0.0 | 0.00 | 0.00 | 0.00 | 66 | 1010.7 |
| 20260505054257 | 13 | 276 | 0.0 | 0.0 | 0.00 | 0.00 | 0.00 | 66 | 1010.7 |
| 20260505053755 | 13 | 276 | 0.0 | 0.0 | 0.00 | 0.00 | 0.00 | 65 | 1010.6 |
| 20260505053252 | 14 | 276 | 0.0 | 1.6 | 0.00 | 0.00 | 0.00 | 63 | 1010.6 |
| 20260505052749 | 15 | 276 | 3.2 | 4.8 | 0.00 | 0.00 | 0.00 | 60 | 1010.7 |
| 20260505052246 | 15 | 276 | 4.8 | 4.8 | 0.00 | 0.00 | 0.00 | 61 | 1010.7 |
| 20260505051743 | 15 | 276 | 1.6 | 4.8 | 0.00 | 0.00 | 0.00 | 60 | 1010.6 |
| 20260505051241 | 15 | 276 | 3.2 | 4.8 | 0.00 | 0.00 | 0.00 | 59 | 1010.5 |
| 20260505050738 | 16 | 274 | 3.2 | 6.4 | 0.00 | 0.00 | 0.00 | 57 | 1010.7 |
| 20260505050236 | 16 | 276 | 4.8 | 6.4 | 0.00 | 0.00 | 0.00 | 56 | 1010.6 |
| 20260505041700 | 16 | 288 | 3.2 | 4.8 | 0.00 | 0.00 | 0.00 | 56 | 1010.5 |
| 20260505041158 | 16 | 289 | 4.8 | 4.8 | 0.00 | 0.00 | 0.00 | 55 | 1010.4 |
| 20260505040654 | 16 | 283 | 6.4 | 6.4 | 0.00 | 0.00 | 0.00 | 53 | 1010.5 |
| 20260505040151 | 16 | 273 | 4.8 | 8.0 | 0.00 | 0.00 | 0.00 | 54 | 1010.4 |
| 20260505035647 | 16 | 281 | 8.0 | 8.0 | 0.00 | 0.00 | 0.00 | 53 | 1010.5 |
| 20260505035139 | 16 | 283 | 6.4 | 8.0 | 0.00 | 0.00 | 0.00 | 53 | 1010.3 |
| 20260505034635 | 16 | 290 | 4.8 | 8.0 | 0.00 | 0.00 | 0.00 | 53 | 1010.3 |
| 20260505034133 | 16 | 278 | 4.8 | 8.0 | 0.00 | 0.00 | 0.00 | 53 | 1010.2 |
| 20260505033628 | 16 | 286 | 6.4 | 8.0 | 0.00 | 0.00 | 0.00 | 53 | 1010.2 |
| 20260505033127 | 16 | 346 | 6.4 | 8.0 | 0.00 | 0.00 | 0.00 | 53 | 1010.3 |
| 20260505032625 | 16 | 282 | 6.4 | 8.0 | 0.00 | 0.00 | 0.00 | 53 | 1010.5 |
| 20260505032121 | 16 | 248 | 3.2 | 6.4 | 0.00 | 0.00 | 0.00 | 54 | 1010.4 |
| 20260505031619 | 16 | 257 | 1.6 | 4.8 | 0.00 | 0.00 | 0.00 | 56 | 1010.5 |
| 20260505031114 | 16 | 294 | 6.4 | 6.4 | 0.00 | 0.00 | 0.00 | 54 | 1010.3 |
| 20260505030612 | 15 | 243 | 3.2 | 6.4 | 0.00 | 0.00 | 0.00 | 56 | 1010.5 |
| 20260505030107 | 15 | 270 | 3.2 | 4.8 | 0.00 | 0.00 | 0.00 | 57 | 1010.3 |
| 20260505025603 | 15 | 347 | 1.6 | 4.8 | 0.00 | 0.00 | 0.00 | 58 | 1010.4 |
| 20260505025102 | 15 | 306 | 1.6 | 4.8 | 0.00 | 0.00 | 0.00 | 58 | 1010.4 |
| 20260505024559 | 15 | 304 | 1.6 | 1.6 | 0.00 | 0.00 | 0.00 | 57 | 1010.7 |
| 20260505024056 | 15 | 323 | 0.0 | 0.0 | 0.00 | 0.00 | 0.00 | 57 | 1010.7 |
| 20260505023554 | 15 | 301 | 1.6 | 1.6 | 0.00 | 0.00 | 0.00 | 57 | 1010.5 |
| 20260505023051 | 16 | 258 | 1.6 | 4.8 | 0.00 | 0.00 | 0.00 | 56 | 1010.7 |
| 20260505022548 | 16 | 301 | 3.2 | 6.4 | 0.00 | 0.00 | 0.00 | 52 | 1010.5 |
| 20260505022045 | 15 | 298 | 3.2 | 4.8 | 0.00 | 0.00 | 0.00 | 55 | 1010.5 |
| 20260505021542 | 15 | 259 | 1.6 | 1.6 | 0.00 | 0.00 | 0.00 | 59 | 1010.7 |
| 20260505021038 | 15 | 259 | 0.0 | 0.0 | 0.00 | 0.00 | 0.00 | 59 | 1010.8 |
| 20260505020533 | 15 | 336 | 0.0 | 4.8 | 0.00 | 0.00 | 0.00 | 57 | 1010.8 |
| 20260505020030 | 15 | 282 | 1.6 | 1.6 | 0.00 | 0.00 | 0.00 | 59 | 1010.8 |
| 20260505015527 | 15 | 296 | 0.0 | 1.6 | 0.00 | 0.00 | 0.00 | 58 | 1010.8 |
| 20260505015024 | 15 | 303 | 1.6 | 1.6 | 0.00 | 0.00 | 0.00 | 59 | 1010.8 |
| 20260505014521 | 14 | 323 | 0.0 | 0.0 | 0.00 | 0.00 | 0.00 | 59 | 1010.8 |
| 20260505014018 | 14 | 324 | 0.0 | 1.6 | 0.00 | 0.00 | 0.00 | 59 | 1010.6 |
| 20260505013515 | 15 | 218 | 0.0 | 0.0 | 0.00 | 0.00 | 0.00 | 59 | 1010.8 |
| 20260505013012 | 15 | 217 | 0.0 | 0.0 | 0.00 | 0.00 | 0.00 | 59 | 1010.8 |
| 20260505012510 | 15 | 217 | 0.0 | 0.0 | 0.00 | 0.00 | 0.00 | 59 | 1010.7 |
| 20260505012007 | 15 | 217 | 0.0 | 0.0 | 0.00 | 0.00 | 0.00 | 59 | 1010.4 |
| 20260505011503 | 15 | 217 | 0.0 | 0.0 | 0.00 | 0.00 | 0.00 | 58 | 1010.5 |
| 20260505011000 | 15 | 217 | 0.0 | 1.6 | 0.00 | 0.00 | 0.00 | 56 | 1010.5 |
| 20260505010455 | 15 | 217 | 0.0 | 1.6 | 0.00 | 0.00 | 0.00 | 55 | 1010.5 |
| 20260505005951 | 16 | 209 | 0.0 | 4.8 | 0.00 | 0.00 | 0.00 | 55 | 1010.3 |
| 20260505005448 | 16 | 319 | 0.0 | 0.0 | 0.00 | 0.00 | 0.00 | 55 | 1010.5 |
| 20260505004946 | 16 | 28 | 0.0 | 0.0 | 0.00 | 0.00 | 0.00 | 53 | 1010.3 |
| 20260505004443 | 17 | 28 | 0.0 | 0.0 | 0.00 | 0.00 | 0.00 | 51 | 1010.4 |
| 20260505003940 | 16 | 299 | 0.0 | 6.4 | 0.00 | 0.00 | 0.00 | 50 | 1010.3 |
| 20260505003437 | 16 | 273 | 0.0 | 0.0 | 0.00 | 0.00 | 0.00 | 54 | 1010.3 |
| 20260505002933 | 16 | 273 | 0.0 | 4.8 | 0.00 | 0.00 | 0.00 | 53 | 1010.3 |
| 20260505002429 | 16 | 337 | 0.0 | 1.6 | 0.00 | 0.00 | 0.00 | 52 | 1010.3 |
| 20260505001928 | 17 | 337 | 0.0 | 1.6 | 0.00 | 0.00 | 0.00 | 51 | 1010.1 |
| 20260505001425 | 17 | 343 | 1.6 | 1.6 | 0.00 | 0.00 | 0.00 | 50 | 1010.0 |
| 20260505000922 | 17 | 313 | 3.2 | 6.4 | 0.00 | 0.00 | 0.00 | 48 | 1010.0 |
| 20260505000420 | 18 | 342 | 1.6 | 8.0 | 0.00 | 0.00 | 0.00 | 48 | 1010.1 |
| 20260504235916 | 18 | 292 | 3.2 | 6.4 | 0.00 | 0.00 | 0.00 | 47 | 1010.0 |
| 20260504235414 | 18 | 325 | 3.2 | 4.8 | 0.00 | 0.00 | 0.00 | 47 | 1010.0 |
| 20260504234910 | 18 | 254 | 0.0 | 6.4 | 0.00 | 0.00 | 0.00 | 45 | 1009.7 |
| 20260504234408 | 18 | 333 | 6.4 | 8.0 | 0.00 | 0.00 | 0.00 | 45 | 1009.7 |
| 20260504233904 | 19 | 268 | 6.4 | 6.4 | 0.00 | 0.00 | 0.00 | 45 | 1009.7 |
| 20260504233359 | 19 | 276 | 6.4 | 8.0 | 0.00 | 0.00 | 0.00 | 45 | 1009.6 |
| 20260504232856 | 20 | 314 | 3.2 | 6.4 | 0.00 | 0.00 | 0.00 | 45 | 1009.5 |
| 20260504232354 | 20 | 284 | 6.4 | 6.4 | 0.00 | 0.00 | 0.00 | 44 | 1009.4 |
| 20260504231850 | 20 | 292 | 3.2 | 4.8 | 0.00 | 0.00 | 0.00 | 44 | 1009.4 |
| 20260504231347 | 20 | 302 | 3.2 | 8.0 | 0.00 | 0.00 | 0.00 | 43 | 1009.5 |
| 20260504230843 | 20 | 279 | 4.8 | 6.4 | 0.00 | 0.00 | 0.00 | 42 | 1009.2 |
| 20260504230341 | 21 | 283 | 8.0 | 11.3 | 0.00 | 0.00 | 0.00 | 41 | 1009.4 |
| 20260504225839 | 21 | 281 | 9.7 | 11.3 | 0.00 | 0.00 | 0.00 | 40 | 1009.2 |
| 20260504225335 | 21 | 288 | 6.4 | 8.0 | 0.00 | 0.00 | 0.00 | 40 | 1009.3 |
| 20260504224833 | 21 | 268 | 6.4 | 12.9 | 0.00 | 0.00 | 0.00 | 39 | 1009.2 |
| 20260504224330 | 21 | 286 | 9.7 | 12.9 | 0.00 | 0.00 | 0.00 | 40 | 1009.3 |
| 20260504223826 | 21 | 276 | 4.8 | 8.0 | 0.00 | 0.00 | 0.00 | 39 | 1009.2 |
| 20260504223322 | 21 | 272 | 11.3 | 12.9 | 0.00 | 0.00 | 0.00 | 39 | 1009.3 |
| 20260504222819 | 21 | 269 | 11.3 | 16.1 | 0.00 | 0.00 | 0.00 | 39 | 1009.2 |
| 20260504222316 | 21 | 268 | 6.4 | 12.9 | 0.00 | 0.00 | 0.00 | 39 | 1009.4 |
| 20260504221814 | 21 | 285 | 4.8 | 8.0 | 0.00 | 0.00 | 0.00 | 39 | 1009.4 |
| 20260504221310 | 21 | 269 | 6.4 | 11.3 | 0.00 | 0.00 | 0.00 | 39 | 1009.2 |
| 20260504220807 | 21 | 254 | 9.7 | 17.7 | 0.00 | 0.00 | 0.00 | 39 | 1009.4 |
| 20260504220304 | 21 | 288 | 8.0 | 16.1 | 0.00 | 0.00 | 0.00 | 39 | 1009.3 |
| 20260504215802 | 22 | 275 | 8.0 | 11.3 | 0.00 | 0.00 | 0.00 | 38 | 1009.5 |
| 20260504215258 | 22 | 274 | 8.0 | 11.3 | 0.00 | 0.00 | 0.00 | 40 | 1009.5 |
| 20260504214754 | 22 | 277 | 8.0 | 12.9 | 0.00 | 0.00 | 0.00 | 39 | 1009.6 |
| 20260504214250 | 22 | 283 | 4.8 | 8.0 | 0.00 | 0.00 | 0.00 | 39 | 1009.5 |
| 20260504213747 | 21 | 267 | 11.3 | 16.1 | 0.00 | 0.00 | 0.00 | 39 | 1009.5 |
| 20260504213243 | 21 | 290 | 9.7 | 16.1 | 0.00 | 0.00 | 0.00 | 39 | 1009.5 |
| 20260504212741 | 21 | 269 | 3.2 | 8.0 | 0.00 | 0.00 | 0.00 | 38 | 1009.3 |
| 20260504212237 | 22 | 279 | 6.4 | 8.0 | 0.00 | 0.00 | 0.00 | 37 | 1009.7 |
| 20260504211735 | 22 | 267 | 6.4 | 8.0 | 0.00 | 0.00 | 0.00 | 37 | 1009.4 |
| 20260504211231 | 22 | 264 | 8.0 | 12.9 | 0.00 | 0.00 | 0.00 | 38 | 1009.5 |
| 20260504210728 | 21 | 268 | 11.3 | 17.7 | 0.00 | 0.00 | 0.00 | 38 | 1009.6 |
| 20260504210225 | 22 | 317 | 9.7 | 12.9 | 0.00 | 0.00 | 0.00 | 37 | 1009.6 |
| 20260504205722 | 22 | 293 | 9.7 | 12.9 | 0.00 | 0.00 | 0.00 | 37 | 1009.5 |
| 20260504205220 | 22 | 274 | 9.7 | 11.3 | 0.00 | 0.00 | 0.00 | 38 | 1009.8 |
| 20260504204718 | 22 | 263 | 11.3 | 19.3 | 0.00 | 0.00 | 0.00 | 37 | 1010.0 |
| 20260504204216 | 22 | 281 | 16.1 | 19.3 | 0.00 | 0.00 | 0.00 | 38 | 1009.8 |
| 20260504203715 | 22 | 272 | 8.0 | 11.3 | 0.00 | 0.00 | 0.00 | 38 | 1009.7 |
| 20260504203212 | 22 | 281 | 8.0 | 12.9 | 0.00 | 0.00 | 0.00 | 39 | 1009.8 |
| 20260504202712 | 21 | 266 | 12.9 | 16.1 | 0.00 | 0.00 | 0.00 | 38 | 1010.1 |
| 20260504202209 | 21 | 300 | 16.1 | 19.3 | 0.00 | 0.00 | 0.00 | 39 | 1010.0 |
| 20260504201706 | 22 | 312 | 9.7 | 12.9 | 0.00 | 0.00 | 0.00 | 39 | 1010.1 |
| 20260504201204 | 21 | 274 | 9.7 | 16.1 | 0.00 | 0.00 | 0.00 | 37 | 1010.2 |
| 20260504200701 | 22 | 288 | 11.3 | 22.5 | 0.00 | 0.00 | 0.00 | 38 | 1010.1 |
| 20260504200152 | 22 | 271 | 14.5 | 22.5 | 0.00 | 0.00 | 0.00 | 39 | 1010.1 |
| 20260504195648 | 21 | 299 | 9.7 | 16.1 | 0.00 | 0.00 | 0.00 | 38 | 1010.1 |
| 20260504195144 | 21 | 295 | 16.1 | 19.3 | 0.00 | 0.00 | 0.00 | 38 | 1010.3 |
| 20260504194641 | 21 | 20 | 6.4 | 12.9 | 0.00 | 0.00 | 0.00 | 40 | 1010.3 |
| 20260504194137 | 21 | 240 | 9.7 | 17.7 | 0.00 | 0.00 | 0.00 | 38 | 1010.4 |
| 20260504193633 | 21 | 263 | 11.3 | 12.9 | 0.00 | 0.00 | 0.00 | 40 | 1010.6 |
| 20260504193132 | 21 | 287 | 11.3 | 19.3 | 0.00 | 0.00 | 0.00 | 38 | 1010.6 |
| 20260504192629 | 21 | 289 | 9.7 | 16.1 | 0.00 | 0.00 | 0.00 | 38 | 1010.6 |
| 20260504192127 | 21 | 271 | 16.1 | 22.5 | 0.00 | 0.00 | 0.00 | 39 | 1010.5 |
| 20260504191626 | 21 | 266 | 8.0 | 17.7 | 0.00 | 0.00 | 0.00 | 40 | 1010.7 |
| 20260504191121 | 21 | 287 | 11.3 | 16.1 | 0.00 | 0.00 | 0.00 | 39 | 1010.6 |
| 20260504190617 | 21 | 279 | 11.3 | 17.7 | 0.00 | 0.00 | 0.00 | 39 | 1010.7 |
| 20260504190114 | 21 | 263 | 8.0 | 11.3 | 0.00 | 0.00 | 0.00 | 40 | 1010.6 |
| 20260504185611 | 20 | 268 | 12.9 | 16.1 | 0.00 | 0.00 | 0.00 | 40 | 1010.7 |
| 20260504185107 | 21 | 281 | 6.4 | 17.7 | 0.00 | 0.00 | 0.00 | 40 | 1010.8 |
| 20260504184603 | 20 | 287 | 11.3 | 19.3 | 0.00 | 0.00 | 0.00 | 39 | 1010.8 |
| 20260504184058 | 20 | 292 | 6.4 | 11.3 | 0.00 | 0.00 | 0.00 | 40 | 1011.0 |
| 20260504183556 | 20 | 275 | 8.0 | 12.9 | 0.00 | 0.00 | 0.00 | 39 | 1011.0 |
| 20260504183054 | 20 | 261 | 9.7 | 16.1 | 0.00 | 0.00 | 0.00 | 40 | 1011.1 |
| 20260504182550 | 20 | 300 | 12.9 | 19.3 | 0.00 | 0.00 | 0.00 | 41 | 1011.0 |
| 20260504182048 | 20 | 270 | 11.3 | 17.7 | 0.00 | 0.00 | 0.00 | 40 | 1011.5 |
| 20260504181545 | 20 | 283 | 11.3 | 17.7 | 0.00 | 0.00 | 0.00 | 40 | 1011.2 |
| 20260504181043 | 20 | 306 | 11.3 | 17.7 | 0.00 | 0.00 | 0.00 | 40 | 1011.3 |
| 20260504180542 | 20 | 278 | 12.9 | 16.1 | 0.00 | 0.00 | 0.00 | 42 | 1011.3 |
| 20260504180040 | 20 | 255 | 6.4 | 17.7 | 0.00 | 0.00 | 0.00 | 41 | 1011.4 |
| 20260504175537 | 20 | 297 | 12.9 | 22.5 | 0.00 | 0.00 | 0.00 | 41 | 1011.4 |
| 20260504175034 | 20 | 261 | 9.7 | 12.9 | 0.00 | 0.00 | 0.00 | 41 | 1011.4 |
| 20260504174532 | 20 | 280 | 11.3 | 17.7 | 0.00 | 0.00 | 0.00 | 41 | 1011.5 |
| 20260504174028 | 20 | 265 | 8.0 | 12.9 | 0.00 | 0.00 | 0.00 | 40 | 1011.7 |
| 20260504173525 | 20 | 278 | 9.7 | 12.9 | 0.00 | 0.00 | 0.00 | 42 | 1011.7 |
| 20260504173023 | 20 | 275 | 9.7 | 12.9 | 0.00 | 0.00 | 0.00 | 41 | 1011.6 |
| 20260504172519 | 20 | 278 | 6.4 | 12.9 | 0.00 | 0.00 | 0.00 | 44 | 1011.9 |
| 20260504172015 | 19 | 263 | 11.3 | 12.9 | 0.00 | 0.00 | 0.00 | 40 | 1012.2 |